Location: El Parasal
(3.7539°N, 75.6033°W)
Time: 23:01:13
(UTC+00:00)

Daily predictions for brighter satellites

Satellite Brightness Start Highest point End
(mag) Time Altitude Azimuth Time Altitude Azimuth Time Altitude Azimuth
ARIANE 5 R/B 4.2 22:48:36 10° W 22:53:13 78° S 23:36:21 10° E
ARIANE 6 FM1 Upper Stage 3.7 23:06:23 10° NW 23:10:23 52° WSW 23:14:30 10° SSE
Cosmos 2237 4.3 23:06:15 10° S 23:11:55 66° ESE 23:17:34 10° NNE
Meteor 1-26 Rocket 4.2 23:06:59 10° S 23:12:34 71° E 23:17:59 10° NNE
DELTA 2 R/B (1) 4.3 23:07:16 10° WNW 23:12:42 58° SW 23:18:09 10° SE
Cosmos 1937 Rocket 3.5 23:09:00 10° S 23:14:16 87° ESE 23:19:28 10° NNE
Atlas Centaur 2 1.9 23:11:32 10° WSW 23:14:54 40° NNW 23:18:19 10° NE
Orbus 21S 3.5 23:15:44 10° N 23:16:59 13° NNE 23:18:28 10° ENE
SL-16 R/B 2.8 23:17:01 10° S 23:22:13 38° ESE 23:27:24 10° NE
Meteor 1-20 Rocket 4.4 23:16:48 10° N 23:22:16 79° W 23:27:50 10° S
ARIANE 5 R/B 2.9 23:19:40 10° S 23:24:37 68° WSW 23:29:36 10° NNW
IRS-P3 4.1 23:21:04 10° SSE 23:26:22 75° ENE 23:31:39 10° N
Cosmos 1953 Rocket 4.2 23:22:59 10° NNE 23:27:00 34° E 23:31:02 10° SSE
Ariane H10+ 2.7 23:17:19 10° W 23:27:49 78° N 23:32:49 11° E
Cosmos 1655 Rocket 4.1 23:22:31 10° N 23:28:33 54° E 23:34:36 10° SSE
Cosmos 2058 Rocket 4.1 23:27:55 10° SSW 23:32:13 50° W 23:36:30 10° N
CZ-4 R/B 4.2 23:30:10 10° SSE 23:34:05 67° ENE 23:37:59 10° N
Helios 1A Rocket 4.2 23:31:22 10° NNW 23:34:26 33° WNW 23:37:30 10° SW
SPOT 1/Viking Rocket 3.5 23:30:22 10° SSE 23:35:29 62° ENE 23:40:36 10° N
Cosmos 1825 Rocket 3.7 23:33:10 10° N 23:37:27 77° W 23:41:43 10° S
Cosmos 2297 Rocket 2.1 23:35:29 10° NNW 23:41:07 80° ENE 23:46:45 10° SSE
IUS-18 SRM-1 2.2 23:40:38 10° SW 23:43:04 68° SSE 23:46:45 18° ENE
Cosmos 1437 Rocket 4.2 23:42:00 10° SE 23:44:06 16° E 23:44:06 16° E
USA 276 3.8 23:43:49 10° W 23:44:31 13° SW 23:45:15 10° SSW
NOSS 3-1 (C) 3.0 23:41:30 10° S 23:45:52 44° ESE 23:48:32 20° NE
Cosmos 2278 3.8 23:40:31 10° S 23:46:07 59° ESE 23:51:22 12° NNE
Delta 168 3.5 23:42:23 10° NW 23:46:30 50° NNE 23:51:25 14° E
CZ-2D R/B 3.4 23:44:27 10° SSE 23:48:38 73° ENE 23:52:49 10° N
PSLV R/B 3.6 23:45:18 10° SSE 23:49:07 43° ENE 23:52:56 10° N
Intercosmos 25 4.1 23:47:18 10° S 23:51:33 62° E 23:58:18 10° N
USA 81 4.0 23:46:37 10° N 23:51:52 77° E 23:57:07 10° S
IUS-7 SRM-1 3.7 23:42:35 10° WSW 23:56:10 77° NNW 23:58:04 28° NE
CARTOSAT-1 4.2 23:52:35 10° SE 23:56:18 31° ENE 23:57:21 27° NE
